NOAA 17 DEB, 48723

Orbit data source: Space-Track

NOAA 17 DEB, 48723 is space debris in SSO originally from a launch on Mon, 24 Jun 2002 UTC launched from the Air Force Western Test Range (AFWTR). Debris objects in space refer to the collection of defunct objects orbiting the Earth. Examples of debris include non-operational satellites, rocket bodies, and fragments generated from explosions, collisions, or faulty payload assembly.

Loading next visibility...
Identifier
48723, 2002-032BG
Orbit
SSO
Country
Flag of USUS
Related business
Manufacturer
Unknown
Mission
Spacecraft
Bus & Motor
Unknown
Mass
Unknown
Launch date (UTC)
2002-06-24 (23 years ago)
Launch vehicle
Unknown
Launch site
Air Force Western Test Range (AFWTR)
Object type
Payload
Rocket body
Debris
Shape & HBR
Unknown shape, 0.1 m
Radar Cross Section
Small (<0.1 m²)

Expand to show TLE details & history
Last TLE update: 2 days ago

TLE from 2 days ago
0 NOAA 17 DEB
1 48723U 02032BG  25347.69111117  .00009350  00000-0  25329-2 0  9999
2 48723  98.8068 327.1868 0022643  78.6792 281.6942 14.47747646247595
Epoch: 2025-12-13T16:35Z
TLE epoch observation values (Epoch: 2025-12-13T16:35:12.005Z)
Latitude
-0.00001°
Longitude
-4.22797°
Altitude
732.734 km
Speed
7.49 km/s
True Right ascension
21h 48m 44s
True Declination
0° 00' 00"
Sunlit
Object was in daylight at epoch
Visualization orbit readout
Latitude
Unknown
Longitude
Unknown
Altitude
Unknown
Speed
Unknown
Apparent Right ascension
Unknown
Apparent Declination
Unknown
Sunlit
N/A
Visualization observer readout
Local Sidereal Time
15:06:13
Azimuth
Unknown
Elevation
Unknown
Doppler factor
Unknown
Orbital elements
Apogee altitude
746.236 km
Perigee altitude
714.046 km
Semi-major axis
7,108.278 km
Eccentricity
0.00226
Inclination
98.8068°
RAAN
327.1868°
Arg. of periapsis
78.6792°
True anomaly
281.43997°
Mean anomaly
281.6942°
Eccentric anomaly
281.5671°
Mean motion
3.62157 °/min
Orbital period
99.4 mins
BSTAR
0.0025329
Loading maneuver chart data...
Computing Atmospheric mass density...
Loading historical data...
Loading historical data...
Loading historical data...
Loading historical data...
Loading historical data...
Loading historical data...
Loading historical data...

Documentation

Showing up to 5 results
|